[[{"header":{"parameterUnit":"m.s-1","parameterCategory":1,"la1":30.2991,"la2":30.254,"lo1":-89.0895,"lo2":-89.0444,"dy":0.0017,"dx":0.0017,"nx":28,"ny":28,"refTime":"2025-09-08T03:00:00:Z","depth":0,"parameterNumber":2,"parameterNumberName":"U-component_of_WINDS"},"data":[0,0,0,0,0,0,0,0,0,0,0,0,0,0,0,0,0,0,0,0,0,0,0,0,0,0,0,0,0,0,0,0,0,0,0,0,0,0,0,0,0,0,0,0,0,0,0,0,0,0,0,0,0,0,0,0,0,0,-2.8945,-2.8945,0,-2.8968,-2.8968,-2.8969,-2.8845,-2.8842,-2.8838,-2.8835,-2.886,-2.8864,-2.8868,0,0,0,0,0,0,0,0,0,0,0,0,0,-2.8793,-2.8797,-2.8945,-2.8945,-2.8945,-2.8968,-2.8968,-2.8969,-2.8846,-2.8842,-2.8837,-2.8833,-2.8859,-2.8864,-2.8868,0,0,0,0,0,0,0,0,0,0,0,0,0,-2.8842,-2.8798,-2.8945,-2.8887,-2.8882,-2.8968,-2.8968,-2.8969,-2.8847,-2.8841,-2.8836,-2.8831,-2.8857,-2.8863,-2.8869,-2.9013,0,0,-2.8887,-2.889,0,0,0,0,0,0,0,0,-2.884,-2.8848,-2.8895,-2.8891,-2.8885,-2.8898,-2.8924,-2.8984,-2.8848,-2.886,-2.8835,-2.8828,-2.8877,-2.8881,-2.8897,-2.9014,-2.9015,-2.8888,-2.8891,-2.8894,-2.8896,0,0,0,0,0,0,0,-2.8836,-2.8846,-2.8954,-2.8896,-2.889,-2.8859,-2.886,-2.8935,-2.8898,-2.8859,-2.885,-2.8854,-2.8874,-2.8892,-2.8897,-2.9015,-2.8888,-2.8893,-2.8897,-2.8899,-2.9251,-2.9256,0,0,0,0,0,0,-2.8841,-2.8844,-2.8953,-2.8955,-2.8849,-2.8866,-2.8868,-2.89,-2.8897,-2.8892,-2.8859,-2.8848,-2.8884,-2.889,-2.8898,-2.9066,-2.8894,-2.89,-2.8903,-2.9245,-2.9252,-2.9258,0,0,0,0,0,0,-2.8838,-2.8851,-2.8952,-2.8897,-2.8907,-2.8875,-2.8912,-2.8903,-2.8921,-2.8897,-2.889,-2.8884,-2.888,-2.8889,-2.8985,-2.9066,-2.8902,-2.8908,-2.9238,-2.9247,-2.9255,-2.9405,0,0,0,0,0,0,-2.8834,-2.8851,-2.8906,-2.8899,-2.8911,-2.904,-2.8916,-2.8907,-2.8932,-2.8918,-2.8919,-2.8914,-2.8877,-2.8977,-2.8991,-2.9071,-2.8912,-2.9231,-2.9242,-2.9252,-2.9393,-2.9418,-2.9439,0,0,0,0,0,-2.8829,-2.8947,-2.8909,-2.8923,-2.8978,-2.9045,-2.9051,-2.9006,-2.8939,-2.8993,-2.8977,-2.8914,-2.9054,-2.8988,-2.9002,-2.9086,-2.9226,-2.9239,-2.9251,-2.9383,-2.9413,-2.9439,0,0,0,0,0,0,-2.8965,-2.8946,-2.8903,-2.9023,-2.9036,-2.9024,-2.9091,-2.9039,-2.9073,-2.9059,-2.9,-2.9002,-2.9108,-2.9105,-2.9032,-2.9224,-2.9128,-2.9145,-2.9223,-2.9251,-2.9274,-2.9274,-2.8917,0,0,0,0,0,-2.9009,-2.9064,-2.9044,-2.9152,-2.916,-2.9125,-2.9152,-2.9115,-2.9127,-2.9133,-2.9124,-2.9138,-2.9185,-2.9217,-2.9259,-2.9391,-2.939,-2.9455,-2.9478,-2.9497,-2.9514,-2.9584,-2.9613,-2.9301,-2.93,-2.93,0,0,-2.9101,-2.9096,-2.9135,-2.9179,-2.9185,-2.9244,-2.9131,-2.9198,-2.9242,-2.9143,-2.9234,-2.9227,-2.9239,-2.9354,-2.9404,-2.9355,-2.9599,-2.9514,-2.9529,-2.9535,-2.96,-2.963,-2.9656,-2.9309,-2.9308,-2.9306,0,0,-2.9298,-2.93,-2.939,-2.9398,-2.9409,-2.9384,-2.9406,-2.9401,-2.9393,-2.9482,-2.941,-2.946,-2.9542,-2.9554,-2.957,-2.977,-2.9714,-2.9785,-2.9908,-2.9977,-3.0001,-3.0023,-3.0096,-3.0123,-2.98,-2.9801,-2.9801,0,-2.9411,-2.9497,-2.9443,-2.9516,-2.9537,-2.9449,-2.9541,-2.9551,-2.9575,-2.9592,-2.9536,-2.9637,-2.9639,-2.9755,-2.9804,-2.9819,-2.9843,-2.9786,-3.0002,-3.0023,-3.0042,-3.0111,-3.0139,-2.9809,-2.9808,-2.9808,-2.9807,0,-2.9636,-2.9697,-2.9768,-2.9794,-2.9822,-2.9904,-2.9863,-2.9898,-2.9858,-2.984,-2.9932,-2.993,-2.997,-2.9994,-2.9956,-3.0106,-3.0075,-3.0012,-2.9914,-3.0082,-3.0146,-3.0172,-2.9822,-2.9819,-2.9816,-2.9814,0,0,-2.9924,-2.9916,-2.9944,-2.9954,-2.9958,-3.0004,-3.0081,-3.012,-3.0152,-3.017,-3.0235,-3.0305,-3.0246,-3.0265,-3.0226,-3.0287,-3.0447,-3.0216,-3.0215,-3.0261,-3.0613,-3.0664,-3.0695,-3.0408,-3.0413,-3.0417,-3.0613,0,-3.0119,-3.0251,-3.0204,-3.0338,-3.0394,-3.031,-3.0377,-3.0387,-3.0371,-3.0415,-3.0396,-3.0449,-3.0366,-3.0377,-3.0432,-3.0416,-3.0518,-3.0401,-3.0469,-3.0472,-3.0472,-3.0728,-3.0781,-3.0967,-3.0638,-3.0642,-3.0645,0,-3.0365,-3.0393,-3.0534,-3.0528,-3.055,-3.0611,-3.0642,-3.0686,-3.0695,-3.0678,-3.0699,-3.0647,-3.0722,-3.0623,-3.0726,-3.0647,-3.0671,-3.0667,-3.0673,-3.0681,-3.0571,-3.0745,-3.1025,-3.1054,-3.0683,-3.068,-3.0677,0,-3.0564,-3.0636,-3.073,-3.0741,-3.0736,-3.0781,-3.0781,-3.0784,-3.0811,-3.0837,-3.0854,-3.0889,-3.091,-3.0938,-3.0898,-3.0828,-3.1007,-3.0904,-3.0997,-3.0999,-3.1042,-3.104,-3.1333,-3.1053,-3.1052,-3.1052,-3.1051,0,-3.0788,-3.0879,-3.0819,-3.0878,-3.0975,-3.0919,-3.1018,-3.1008,-3.1012,-3.1067,-3.0994,-3.1047,-3.0989,-3.1036,-3.1004,-3.1095,-3.1104,-3.1094,-3.1085,-3.1103,-3.1104,-3.112,-3.1107,-3.1059,-3.1057,-3.1056,-3.1055,0,-3.1029,-3.0992,-3.1089,-3.1076,-3.1074,-3.1148,-3.1136,-3.1189,-3.1166,-3.1236,-3.1249,-3.1215,-3.1266,-3.1227,-3.1279,-3.1257,-3.1378,-3.1349,-3.1376,-3.1369,-3.1466,-3.1458,-3.1781,-3.1821,-3.1513,-3.1516,-3.1518,0,-3.1176,-3.1243,-3.1237,-3.1268,-3.1273,-3.1324,-3.135,-3.1296,-3.1326,-3.1341,-3.1393,-3.1438,-3.1472,-3.1558,-3.1538,-3.1577,-3.155,-3.166,-3.1556,-3.1571,-3.1555,-3.1553,-3.156,-3.1683,-3.1687,-3.169,-3.1692,0,-3.1443,-3.1421,-3.1461,-3.1496,-3.1528,-3.1553,-3.1571,-3.1601,-3.1546,-3.1584,-3.1635,-3.1662,-3.1713,-3.176,-3.1791,-3.179,-3.1734,-3.1724,-3.1748,-3.1769,-3.1782,-3.1779,-3.1437,-3.1718,-3.1716,-3.1714,-3.1712,-3.1711,-3.1643,-3.1699,-3.1703,-3.175,-3.1758,-3.1776,-3.1826,-3.1809,-3.1851,-3.1889,-3.1854,-3.1917,-3.1923,-3.1959,-3.1965,-3.2013,-3.1968,-3.2003,-3.2012,-3.2022,-3.2037,-3.1772,-3.2018,-3.2018,-3.2017,-3.2016,-3.2016,0,-3.1908,-3.1905,-3.1949,-3.1977,-3.2014,-3.1955,-3.1971,-3.2007,-3.2063,-3.2073,-3.2107,-3.2167,-3.2211,-3.2193,-3.2232,-3.2275,-3.2249,-3.2287,-3.2285,-3.2286,-3.2074,-3.2051,-3.2307,-3.2307,-3.2307,-3.2306,-3.2306,-3.2306,-3.205,-3.2142,-3.2121,-3.2216,-3.2212,-3.2273,-3.2288,-3.2305,-3.2313,-3.2383,-3.2419,-3.2406,-3.2405,-3.2443,-3.2481,-3.2474,-3.2493,-3.2541,-3.2526,-3.2329,-3.2301,-3.2274,-3.2251,-3.2545,-3.2546,-3.2734,-3.2735,-3.2737]},{"header":{"parameterUnit":"m.s-1","parameterCategory":1,"la1":30.2991,"la2":30.254,"lo1":-89.0895,"lo2":-89.0444,"dy":0.0017,"dx":0.0017,"nx":28,"ny":28,"refTime":"2025-09-08T03:00:00:Z","depth":0,"parameterNumber":3,"parameterNumberName":"V-component_of_WINDS"},"data":[0,0,0,0,0,0,0,0,0,0,0,0,0,0,0,0,0,0,0,0,0,0,0,0,0,0,0,0,0,0,0,0,0,0,0,0,0,0,0,0,0,0,0,0,0,0,0,0,0,0,0,0,0,0,0,0,0,0,-6.3223,-6.3223,0,-6.3279,-6.3279,-6.328,-6.3173,-6.317,-6.3166,-6.3163,-6.3216,-6.322,-6.3225,0,0,0,0,0,0,0,0,0,0,0,0,0,-6.3018,-6.3022,-6.3223,-6.3223,-6.3224,-6.3279,-6.3279,-6.328,-6.3174,-6.317,-6.3165,-6.3161,-6.3214,-6.322,-6.3225,0,0,0,0,0,0,0,0,0,0,0,0,0,-6.3094,-6.3024,-6.3223,-6.3178,-6.3174,-6.3279,-6.328,-6.328,-6.3175,-6.3169,-6.3164,-6.3159,-6.3212,-6.3219,-6.3226,-6.3375,0,0,-6.3247,-6.325,0,0,0,0,0,0,0,0,-6.3089,-6.3101,-6.3184,-6.3181,-6.3177,-6.3214,-6.3226,-6.3312,-6.3176,-6.3175,-6.3163,-6.3157,-6.3219,-6.3225,-6.3247,-6.3377,-6.338,-6.3248,-6.3252,-6.3255,-6.3257,0,0,0,0,0,0,0,-6.3084,-6.3098,-6.3245,-6.3185,-6.3181,-6.3153,-6.3158,-6.3242,-6.3225,-6.3174,-6.3167,-6.3175,-6.3216,-6.3241,-6.3247,-6.338,-6.3248,-6.3254,-6.3258,-6.3261,-6.3634,-6.3639,0,0,0,0,0,0,-6.3085,-6.3094,-6.3243,-6.3246,-6.312,-6.3161,-6.3166,-6.3207,-6.3224,-6.3222,-6.3179,-6.317,-6.3231,-6.3239,-6.3249,-6.3423,-6.3255,-6.3262,-6.3266,-6.3628,-6.3635,-6.3641,0,0,0,0,0,0,-6.3081,-6.31,-6.3241,-6.3168,-6.3184,-6.317,-6.3217,-6.3211,-6.3235,-6.3228,-6.3224,-6.3208,-6.3227,-6.3239,-6.3344,-6.3424,-6.3265,-6.3271,-6.3622,-6.363,-6.3638,-6.3775,0,0,0,0,0,0,-6.3076,-6.3099,-6.3157,-6.3171,-6.3189,-6.3338,-6.3222,-6.3216,-6.3248,-6.3236,-6.3254,-6.3252,-6.3224,-6.3334,-6.3351,-6.3431,-6.3277,-6.3614,-6.3625,-6.3636,-6.3763,-6.3787,-6.3807,0,0,0,0,0,-6.3069,-6.3192,-6.316,-6.3179,-6.3261,-6.3342,-6.3352,-6.3319,-6.3255,-6.3312,-6.3307,-6.3251,-6.3413,-6.3346,-6.3364,-6.3447,-6.3609,-6.3622,-6.3635,-6.3753,-6.3782,-6.3807,0,0,0,0,0,0,-6.3187,-6.3193,-6.3158,-6.329,-6.3317,-6.3324,-6.3395,-6.3351,-6.3396,-6.3382,-6.3338,-6.3343,-6.3457,-6.3462,-6.3388,-6.3591,-6.35,-6.3517,-6.3584,-6.3611,-6.3633,-6.3629,-6.3283,0,0,0,0,0,-6.3229,-6.3296,-6.3297,-6.3413,-6.3428,-6.341,-6.3444,-6.3416,-6.3441,-6.3452,-6.3454,-6.348,-6.3536,-6.3574,-6.3625,-6.3763,-6.3764,-6.3829,-6.3851,-6.3869,-6.3884,-6.3956,-6.3984,-6.3683,-6.3683,-6.3683,0,0,-6.3315,-6.3326,-6.3371,-6.3437,-6.3454,-6.3523,-6.342,-6.3497,-6.3547,-6.3463,-6.3563,-6.3566,-6.359,-6.3713,-6.3767,-6.3721,-6.3967,-6.3885,-6.39,-6.3905,-6.3972,-6.4001,-6.4026,-6.3692,-6.369,-6.3689,0,0,-6.3506,-6.3523,-6.3621,-6.3641,-6.3669,-6.3656,-6.3679,-6.3694,-6.3693,-6.3793,-6.373,-6.3788,-6.3886,-6.3906,-6.3929,-6.4128,-6.4077,-6.4145,-6.4261,-6.4332,-6.4355,-6.4376,-6.4446,-6.4472,-6.4161,-6.4161,-6.4161,0,-6.361,-6.3713,-6.3677,-6.3758,-6.3788,-6.3716,-6.3814,-6.3834,-6.3877,-6.3899,-6.3847,-6.3968,-6.3979,-6.4105,-6.4153,-6.4175,-6.4199,-6.4143,-6.4355,-6.4376,-6.4394,-6.446,-6.4487,-6.4169,-6.4168,-6.4167,-6.4166,0,-6.3837,-6.3909,-6.3985,-6.403,-6.4068,-6.4157,-6.4133,-6.4175,-6.4144,-6.4136,-6.4237,-6.4249,-6.4301,-6.4328,-6.4298,-6.4449,-6.442,-6.4363,-6.427,-6.4432,-6.4493,-6.4518,-6.4181,-6.4178,-6.4175,-6.4173,0,0,-6.4105,-6.4129,-6.4157,-6.4176,-6.4201,-6.4255,-6.434,-6.4393,-6.4429,-6.4461,-6.453,-6.4614,-6.4561,-6.4587,-6.4559,-6.4621,-6.4776,-6.4555,-6.4555,-6.4595,-6.4942,-6.4985,-6.5015,-6.4743,-6.4747,-6.4751,-6.4939,0,-6.4295,-6.4444,-6.4414,-6.4558,-6.4623,-6.4555,-6.4629,-6.4652,-6.4646,-6.4699,-6.4691,-6.4751,-6.4677,-6.4692,-6.4751,-6.4745,-6.4845,-6.4731,-6.4805,-6.4808,-6.4801,-6.5047,-6.5093,-6.527,-6.4963,-6.4967,-6.497,0,-6.4537,-6.4579,-6.4731,-6.4745,-6.4771,-6.4838,-6.4883,-6.4935,-6.4958,-6.4949,-6.4979,-6.4937,-6.502,-6.4927,-6.5038,-6.4962,-6.499,-6.4991,-6.4997,-6.5002,-6.4899,-6.5058,-6.5325,-6.5352,-6.5008,-6.5005,-6.5002,0,-6.4716,-6.4811,-6.4914,-6.4932,-6.4951,-6.5,-6.5009,-6.5027,-6.506,-6.5099,-6.5119,-6.5166,-6.5192,-6.5228,-6.52,-6.5135,-6.5316,-6.5221,-6.531,-6.5311,-6.5351,-6.5349,-6.5626,-6.537,-6.537,-6.537,-6.5369,0,-6.4931,-6.5027,-6.4994,-6.5058,-6.5162,-6.5125,-6.5228,-6.5229,-6.5246,-6.5307,-6.525,-6.5308,-6.5268,-6.5322,-6.53,-6.5395,-6.5407,-6.5401,-6.5394,-6.5406,-6.5407,-6.5424,-6.5411,-6.5377,-6.5375,-6.5374,-6.5372,0,-6.515,-6.5132,-6.5239,-6.5249,-6.5253,-6.5329,-6.5336,-6.5394,-6.5383,-6.5461,-6.5477,-6.5461,-6.5521,-6.5497,-6.556,-6.5546,-6.5667,-6.5644,-6.566,-6.5654,-6.5744,-6.5736,-6.6042,-6.6079,-6.58,-6.5803,-6.5805,0,-6.5288,-6.536,-6.5377,-6.5414,-6.5429,-6.549,-6.5523,-6.5489,-6.5526,-6.5557,-6.5611,-6.5666,-6.5709,-6.5809,-6.5801,-6.5849,-6.5826,-6.593,-6.5833,-6.5843,-6.5827,-6.5823,-6.5829,-6.595,-6.5953,-6.5955,-6.5958,0,-6.5535,-6.5522,-6.5574,-6.5623,-6.5664,-6.5701,-6.5731,-6.5765,-6.5731,-6.5775,-6.5837,-6.5871,-6.5936,-6.5991,-6.6034,-6.6041,-6.5994,-6.5988,-6.6011,-6.6024,-6.603,-6.6027,-6.5713,-6.5981,-6.5979,-6.5977,-6.5976,-6.5975,-6.5716,-6.5777,-6.5798,-6.5857,-6.5877,-6.5907,-6.5962,-6.5958,-6.601,-6.6061,-6.6037,-6.6109,-6.6128,-6.6181,-6.6195,-6.6249,-6.6208,-6.6241,-6.625,-6.6258,-6.627,-6.6022,-6.6256,-6.6256,-6.6255,-6.6254,-6.6254,0,-6.596,-6.597,-6.6025,-6.607,-6.6116,-6.6069,-6.61,-6.6141,-6.6205,-6.6228,-6.6272,-6.6342,-6.6395,-6.6392,-6.6441,-6.6485,-6.6464,-6.6498,-6.6495,-6.6497,-6.6304,-6.6279,-6.6514,-6.6514,-6.6514,-6.6514,-6.6514,-6.6514,-6.6092,-6.6191,-6.6181,-6.6289,-6.6298,-6.6369,-6.639,-6.6417,-6.6435,-6.6517,-6.6561,-6.6559,-6.6571,-6.662,-6.6667,-6.6664,-6.6684,-6.6727,-6.6716,-6.6536,-6.6511,-6.6486,-6.6462,-6.6732,-6.6732,-6.6904,-6.6906,-6.6907]}]]